Regional Weather Roundup
Issued by NWS

Home | Current Version | Previous Version | Text Only | Print | Product List | Glossary Off
Versions: 1 2 3 4 5 6 7 8 9 10 11 12 13 14 15 16 17 18 19 20 21 22 23 24 25 26 27 28 29 30 31 32 33 34 35 36 37 38 39 40 41 42 43 44 45 46 47 48 49 50

000
ASUS43 KDMX 251107
RWRIA

WEATHER ROUNDUP FOR IOWA
NATIONAL WEATHER SERVICE DES MOINES IA
600 AM CDT MON MAY 25 2015

NOTE: "FAIR" INDICATES FEW OR NO CLOUDS BELOW 12,000 FEET WITH NO
SIGNIFICANT WEATHER AND/OR OBSTRUCTIONS TO VISIBILITY.

* - THESE STATIONS ARE NOT NWS STATIONS...THUS NOT UNDER NWS
QUALITY CONTROL.  THEY ALSO DO NOT REPORT WEATHER SUCH
AS PRECIPITATION OR FOG.

IAZ001>003-012>014-020>022-031>034-043>046-251200-
   NORTHWEST IOWA

CITY           SKY/WX    TMP DP  RH WIND       PRES   REMARKS
CARROLL *      MOCLDY    61  61 100 SW9       29.74S
CHEROKEE *     CLOUDY    59  59 100 W5        29.74R FOG
DENISON *      MOCLDY    61  61 100 VRB5      29.73S
LE MARS *      CLOUDY    61  61 100 SW6       29.75R FOG
ORANGE CITY *  FOG       57  57 100 W7        29.73R VSB 1/4
SHELDON *      CLOUDY    59  59 100 W7        29.71R FOG
SIOUX CITY     FOG       59  57  93 W3        29.75R VSB 3/4
SPENCER        CLOUDY    61  60  97 W9        29.72R FOG
STORM LAKE *   CLOUDY    61  61 100 W8        29.74S FOG
$$

IAZ055>058-069>071-079>083-090>094-251200-
   SOUTHWEST IOWA

CITY           SKY/WX    TMP DP  RH WIND       PRES   REMARKS
ATLANTIC *     CLOUDY    63  63 100 S9        29.78R
AUDUBON *      PTCLDY    61  59  94 S7        29.78R FOG
CLARINDA *     CLOUDY    63  63 100 S9        29.84R
COUNCIL BLFS * MOCLDY    61  61 100 S9        29.78R
CRESTON *      CLOUDY    63  63 100 SW13G18   29.81R
HARLAN  *      PTCLDY    61  61 100 S7        29.80R
LAMONI         CLOUDY    63  61  93 SW10      29.82R
RED OAK *      CLOUDY    63  63 100 SW12      29.82R
SHENANDOAH *   CLOUDY    63  63 100 S15       29.81R
$$

IAZ047>049-059>061-072>074-084-251200-
   CENTRAL IOWA

CITY           SKY/WX    TMP DP  RH WIND       PRES   REMARKS
AMES           LGT RAIN  63  61  93 SW14      29.76R
ANKENY *       CLOUDY    63  63 100 SW7       29.77R
CHARITON *     DRIZZLE   63  61  94 SW7       29.81R
DES MOINES     LGT RAIN  64  61  90 SW10      29.77S
GRINNELL*      CLOUDY    63  61  94 SW12      29.78R
KNOXVILLE *    CLOUDY    63  61  94 SW8G17    29.78R
MARSHALLTOWN   RAIN      63  62  97 SW9       29.75R FOG
PELLA *        DRIZZLE   63  63 100 SW7       29.81R
PERRY *        CLOUDY    63  61  94 S7        29.76S
$$

IAZ004>006-015-016-023>025-035-036-251200-
   NORTH CENTRAL IOWA

CITY           SKY/WX    TMP DP  RH WIND       PRES   REMARKS
ALGONA *       MOCLDY    61  61 100 SW10      29.73R FOG
CLARION *      FOG       61  61 100 SW9       29.74R VSB 1
ESTHERVILLE    CLOUDY    60  58  92 W10       29.71R
FORT DODGE *   CLOUDY    61  57  88 SW5       29.74S
MASON CITY     CLOUDY    62  61  96 SW8       29.73R FOG
FOREST CITY *  CLOUDY    59  59 100 SW8       29.72R FOG
IOWA FALLS *   DRIZZLE   63  63 100 SW10      29.76R
$$

IAZ007>011-017>019-026>030-037>042-050>054-066-251200-
   NORTHEAST IOWA

CITY           SKY/WX    TMP DP  RH WIND       PRES   REMARKS
CEDAR RAPIDS   CLOUDY    63  63 100 SW9       29.76R
CHARLES CITY * CLOUDY    63  63 100 SW8       29.73S FOG
CLINTON *      CLOUDY    64  61  88 SW12      29.79R
DECORAH *      CLOUDY    63  63 100 SW7G13    29.71S
DUBUQUE        CLOUDY    63  62  97 SW10      29.74R
MONTICELLO *   CLOUDY    64  64 100 SW9       29.75R
OELWEIN *      CLOUDY    63  63 100 SW9       29.74S FOG
WATERLOO       CLOUDY    63  62  97 SW12      29.73S
$$

IAZ064-065-067-068-078-251200-
   EAST CENTRAL IOWA

CITY           SKY/WX    TMP DP  RH WIND       PRES   REMARKS
DAVENPORT      CLOUDY    64  61  90 SW8       29.79R
IOWA CITY      CLOUDY    63  61  93 SW7       29.80R
MT. PLEASANT * CLOUDY    63  63 100 SW8       29.83R
MUSCATINE *    CLOUDY    64  63  94 SW9       29.80R
QUAD CITIES    CLOUDY    65  62  90 SW8       29.79R
$$

IAZ062-063-075>077-085>089-095>099-251200-
   SOUTHEAST IOWA

CITY           SKY/WX    TMP DP  RH WIND       PRES   REMARKS
BURLINGTON     CLOUDY    65  64  97 SW10      29.82R
FAIRFIELD *    CLOUDY    63  61  94 SW9       29.81R
FORT MADISON * DRIZZLE   63  63 100 SW7       29.84R
KEOKUK *       CLOUDY    64  64 100 SW9       29.83R
OSKALOOSA *    LGT RAIN  61  59  94 SW15      29.81R
CENTERVILLE *  LGT RAIN  59  59 100 S7        29.85R
OTTUMWA        CLOUDY    62  61  96 SW13      29.81R
WASHINGTON *   CLOUDY    63  63 100 SW10      29.82R
$$

ABBREVIATIONS USED IN REMARKS
   TC - TEMPERATURES IN CELSIUS
  WCI - WIND CHILL INDEX
   HX - HEAT INDEX
  VSB - VISIBILITY
$$




USA.gov is the U.S. government's official web portal to all federal, state and local government web resources and services.